TimeMST,TemperatureF,Dew PointF,Humidity,Sea Level PressureIn,VisibilityMPH,Wind Direction,Wind SpeedMPH,Gust SpeedMPH,PrecipitationIn,Events,Conditions,WindDirDegrees,DateUTC
12:11 AM,30.2,30.2,100,30.49,9.0,Calm,Calm,-,N/A,,Overcast,0,2013-03-02 07:11:00
12:53 AM,30.9,30.0,96,30.59,7.0,Calm,Calm,-,N/A,,Overcast,0,2013-03-02 07:53:00
1:53 AM,30.0,28.0,92,30.58,8.0,Calm,Calm,-,N/A,,Overcast,0,2013-03-02 08:53:00
2:08 AM,30.2,28.4,93,30.49,8.0,Calm,Calm,-,N/A,,Overcast,0,2013-03-02 09:08:00
2:53 AM,30.0,28.0,92,30.58,7.0,Calm,Calm,-,N/A,,Overcast,0,2013-03-02 09:53:00
3:53 AM,28.9,27.0,92,30.56,10.0,Calm,Calm,-,N/A,,Overcast,0,2013-03-02 10:53:00
4:53 AM,28.9,26.1,89,30.56,10.0,Calm,Calm,-,N/A,,Overcast,0,2013-03-02 11:53:00
5:53 AM,28.9,26.1,89,30.56,10.0,Calm,Calm,-,N/A,,Overcast,0,2013-03-02 12:53:00
6:53 AM,28.9,28.0,96,30.56,6.0,Calm,Calm,-,N/A,,Overcast,0,2013-03-02 13:53:00
7:39 AM,28.4,28.4,100,30.45,3.0,ENE,3.5,-,N/A,,Overcast,60,2013-03-02 14:39:00
7:53 AM,28.9,28.0,96,30.54,3.0,Calm,Calm,-,N/A,,Overcast,0,2013-03-02 14:53:00
8:53 AM,30.9,28.0,89,30.53,4.0,NE,3.5,-,N/A,,Overcast,50,2013-03-02 15:53:00
9:53 AM,32.0,30.0,92,30.51,4.0,Calm,Calm,-,N/A,,Overcast,0,2013-03-02 16:53:00
10:09 AM,32.0,30.2,93,30.42,5.0,North,3.5,-,N/A,,Overcast,10,2013-03-02 17:09:00
10:53 AM,35.1,30.9,85,30.47,9.0,NE,3.5,-,N/A,,Scattered Clouds,40,2013-03-02 17:53:00
11:53 AM,36.0,30.9,82,30.44,10.0,ENE,3.5,-,N/A,,Partly Cloudy,60,2013-03-02 18:53:00
12:53 PM,39.0,32.0,76,30.40,10.0,ENE,4.6,-,N/A,,Clear,60,2013-03-02 19:53:00
1:53 PM,37.0,32.0,82,30.37,9.0,East,3.5,-,N/A,,Clear,90,2013-03-02 20:53:00
2:53 PM,39.0,32.0,76,30.33,10.0,Calm,Calm,-,N/A,,Clear,0,2013-03-02 21:53:00
3:53 PM,39.9,30.9,70,30.29,10.0,East,3.5,-,N/A,,Clear,80,2013-03-02 22:53:00
4:53 PM,39.0,30.9,73,30.26,10.0,ENE,4.6,-,N/A,,Clear,60,2013-03-02 23:53:00
5:53 PM,37.0,30.9,79,30.22,10.0,ENE,3.5,-,N/A,,Clear,60,2013-03-03 00:53:00
6:53 PM,35.1,30.9,85,30.23,10.0,North,3.5,-,N/A,,Clear,350,2013-03-03 01:53:00
7:53 PM,35.1,32.0,89,30.20,6.0,Calm,Calm,-,N/A,,Clear,0,2013-03-03 02:53:00
8:53 PM,34.0,30.9,89,30.17,7.0,Calm,Calm,-,N/A,,Clear,0,2013-03-03 03:53:00
9:53 PM,33.1,30.9,92,30.17,9.0,Calm,Calm,-,N/A,,Scattered Clouds,0,2013-03-03 04:53:00
10:53 PM,33.1,30.9,92,30.14,8.0,Calm,Calm,-,N/A,,Overcast,0,2013-03-03 05:53:00
11:53 PM,33.1,30.9,92,30.09,6.0,Calm,Calm,-,N/A,,Overcast,0,2013-03-03 06:53:00